| time (UTC) | temp C | wind direction | speed KPH | gust KPH | rain 1hr cm | rain 24hr cm | rain mn cm | humidity % | barometer mb |
| 20260507213014 | 26 | 5 | 20.9 | 30.6 | 0.00 | 0.00 | 0.00 | 10 | 989.4 |
| 20260507211509 | 25 | 332 | 9.7 | 22.5 | 0.00 | 0.00 | 0.00 | 14 | 989.6 |
| 20260507210036 | 25 | 360 | 17.7 | 32.2 | 0.00 | 0.00 | 0.00 | 12 | 990.0 |
| 20260507204534 | 26 | 308 | 16.1 | 29.0 | 0.00 | 0.00 | 0.00 | 13 | 990.2 |
| 20260507203002 | 25 | 337 | 20.9 | 37.0 | 0.00 | 0.00 | 0.00 | 13 | 990.5 |
| 20260507201606 | 26 | 329 | 9.7 | 40.2 | 0.00 | 0.00 | 0.00 | 13 | 990.5 |
| 20260507200026 | 25 | 360 | 14.5 | 30.6 | 0.00 | 0.00 | 0.00 | 15 | 991.0 |
| 20260507194524 | 24 | 301 | 17.7 | 37.0 | 0.00 | 0.00 | 0.00 | 15 | 991.0 |
| 20260507193024 | 25 | 307 | 4.8 | 33.8 | 0.00 | 0.00 | 0.00 | 18 | 991.3 |
| 20260507191514 | 24 | 322 | 16.1 | 43.5 | 0.00 | 0.00 | 0.00 | 17 | 991.4 |
| 20260507190010 | 23 | 179 | 8.0 | 32.2 | 0.00 | 0.00 | 0.00 | 18 | 991.7 |
| 20260507184508 | 22 | 230 | 3.2 | 24.1 | 0.00 | 0.00 | 0.00 | 24 | 992.1 |
| 20260507183001 | 22 | 292 | 4.8 | 20.9 | 0.00 | 0.00 | 0.00 | 24 | 992.3 |
| 20260507181557 | 21 | 201 | 8.0 | 16.1 | 0.00 | 0.00 | 0.00 | 26 | 992.4 |
| 20260507180053 | 20 | 251 | 6.4 | 14.5 | 0.00 | 0.00 | 0.00 | 27 | 992.7 |
| 20260507174550 | 21 | 300 | 3.2 | 16.1 | 0.00 | 0.00 | 0.00 | 27 | 993.0 |
| 20260507173048 | 20 | 92 | 1.6 | 20.9 | 0.00 | 0.00 | 0.00 | 28 | 993.3 |
| 20260507171549 | 20 | 208 | 8.0 | 19.3 | 0.00 | 0.00 | 0.00 | 27 | 993.5 |
| 20260507170041 | 20 | 311 | 4.8 | 17.7 | 0.00 | 0.00 | 0.00 | 28 | 993.6 |
| 20260507164555 | 20 | 301 | 3.2 | 17.7 | 0.00 | 0.00 | 0.00 | 29 | 993.7 |
| 20260507163040 | 19 | 235 | 1.6 | 20.9 | 0.00 | 0.00 | 0.00 | 29 | 993.8 |
| 20260507161539 | 18 | 217 | 11.3 | 20.9 | 0.00 | 0.00 | 0.00 | 30 | 993.9 |
| 20260507160037 | 18 | 225 | 8.0 | 17.7 | 0.00 | 0.00 | 0.00 | 30 | 994.3 |
| 20260507154537 | 18 | 226 | 1.6 | 11.3 | 0.00 | 0.00 | 0.00 | 32 | 994.6 |
| 20260507153038 | 17 | 241 | 1.6 | 9.7 | 0.00 | 0.00 | 0.00 | 34 | 994.8 |
| 20260507151534 | 17 | 243 | 0.0 | 9.7 | 0.00 | 0.00 | 0.00 | 34 | 994.8 |
| 20260507150034 | 16 | 225 | 0.0 | 8.0 | 0.00 | 0.00 | 0.00 | 38 | 994.9 |
| 20260507144531 | 15 | 145 | 0.0 | 1.6 | 0.00 | 0.00 | 0.00 | 39 | 995.0 |
| 20260507143053 | 14 | 145 | 1.6 | 4.8 | 0.00 | 0.00 | 0.00 | 40 | 995.1 |
| 20260507141623 | 13 | 142 | 0.0 | 3.2 | 0.00 | 0.00 | 0.00 | 45 | 995.2 |
| 20260507140059 | 12 | 142 | 0.0 | 6.4 | 0.00 | 0.00 | 0.00 | 47 | 995.2 |
| 20260507134558 | 10 | 96 | 1.6 | 8.0 | 0.00 | 0.00 | 0.00 | 50 | 995.2 |
| 20260507133101 | 8 | 360 | 8.0 | 11.3 | 0.00 | 0.00 | 0.00 | 54 | 995.2 |
| 20260507131610 | 7 | 360 | 6.4 | 11.3 | 0.00 | 0.00 | 0.00 | 58 | 995.4 |
| 20260507130050 | 5 | 360 | 8.0 | 11.3 | 0.00 | 0.00 | 0.00 | 68 | 995.3 |
| 20260507124541 | 3 | 123 | 4.8 | 8.0 | 0.00 | 0.00 | 0.00 | 68 | 995.4 |
| 20260507123034 | 3 | 115 | 3.2 | 6.4 | 0.00 | 0.00 | 0.00 | 70 | 995.2 |
| 20260507121529 | 5 | 115 | 1.6 | 9.7 | 0.00 | 0.00 | 0.00 | 62 | 995.1 |
| 20260507120026 | 5 | 95 | 3.2 | 11.3 | 0.00 | 0.00 | 0.00 | 60 | 995.1 |
| 20260507114557 | 5 | 120 | 6.4 | 9.7 | 0.00 | 0.00 | 0.00 | 60 | 995.1 |
| 20260507113053 | 5 | 107 | 8.0 | 11.3 | 0.00 | 0.00 | 0.00 | 61 | 995.1 |
| 20260507111551 | 5 | 111 | 6.4 | 9.7 | 0.00 | 0.00 | 0.00 | 60 | 995.0 |
| 20260507110052 | 5 | 113 | 6.4 | 11.3 | 0.00 | 0.00 | 0.00 | 60 | 995.0 |
| 20260507104554 | 5 | 109 | 6.4 | 9.7 | 0.00 | 0.00 | 0.00 | 62 | 995.0 |
| 20260507103047 | 4 | 92 | 6.4 | 9.7 | 0.00 | 0.00 | 0.00 | 65 | 995.0 |
| 20260507101517 | 5 | 85 | 4.8 | 8.0 | 0.00 | 0.00 | 0.00 | 61 | 995.0 |
| 20260507100015 | 5 | 80 | 0.0 | 16.1 | 0.00 | 0.00 | 0.00 | 51 | 995.0 |
| 20260507094513 | 5 | 111 | 8.0 | 11.3 | 0.00 | 0.00 | 0.00 | 58 | 994.8 |
| 20260507093011 | 5 | 115 | 3.2 | 8.0 | 0.00 | 0.00 | 0.00 | 58 | 994.8 |
| 20260507091514 | 5 | 114 | 4.8 | 9.7 | 0.00 | 0.00 | 0.00 | 61 | 994.7 |
| 20260507090009 | 5 | 110 | 1.6 | 6.4 | 0.00 | 0.00 | 0.00 | 63 | 994.8 |
| 20260507084505 | 3 | 110 | 6.4 | 8.0 | 0.00 | 0.00 | 0.00 | 68 | 995.0 |
| 20260507083002 | 3 | 114 | 4.8 | 9.7 | 0.00 | 0.00 | 0.00 | 71 | 995.1 |
| 20260507081603 | 4 | 151 | 0.0 | 6.4 | 0.00 | 0.00 | 0.00 | 67 | 995.3 |
| 20260507081501 | 4 | 151 | 1.6 | 6.4 | 0.00 | 0.00 | 0.00 | 68 | 995.3 |
| 20260507080120 | 5 | 151 | 3.2 | 6.4 | 0.00 | 0.00 | 0.00 | 67 | 995.4 |
| 20260507074558 | 5 | 151 | 1.6 | 8.0 | 0.00 | 0.00 | 0.00 | 64 | 995.6 |
| 20260507073056 | 6 | 151 | 3.2 | 4.8 | 0.00 | 0.00 | 0.00 | 66 | 995.8 |
| 20260507071559 | 6 | 153 | 0.0 | 9.7 | 0.00 | 0.00 | 0.00 | 61 | 995.8 |
| 20260507064651 | 4 | 109 | 1.6 | 6.4 | 0.00 | 0.00 | 0.00 | 72 | 995.6 |
| 20260507063053 | 4 | 109 | 1.6 | 6.4 | 0.00 | 0.00 | 0.00 | 69 | 995.5 |
| 20260507061546 | 5 | 60 | 0.0 | 3.2 | 0.00 | 0.00 | 0.00 | 69 | 995.4 |
| 20260507054509 | 6 | 60 | 0.0 | 6.4 | 0.00 | 0.00 | 0.00 | 63 | 995.2 |
| 20260507053005 | 7 | 59 | 0.0 | 1.6 | 0.00 | 0.00 | 0.00 | 59 | 995.3 |
| 20260507051608 | 9 | 360 | 0.0 | 1.6 | 0.00 | 0.00 | 0.00 | 54 | 995.2 |
| 20260507050056 | 12 | 63 | 0.0 | 0.0 | 0.00 | 0.00 | 0.00 | 44 | 995.2 |
| 20260507044556 | 14 | 360 | 1.6 | 6.4 | 0.00 | 0.00 | 0.00 | 31 | 995.2 |
| 20260507043047 | 15 | 46 | 3.2 | 14.5 | 0.00 | 0.00 | 0.00 | 20 | 995.1 |
| 20260507041545 | 16 | 57 | 6.4 | 12.9 | 0.00 | 0.00 | 0.00 | 20 | 994.9 |
| 20260507040042 | 16 | 9 | 4.8 | 12.9 | 0.00 | 0.00 | 0.00 | 20 | 994.8 |
| 20260507034540 | 16 | 9 | 6.4 | 12.9 | 0.00 | 0.00 | 0.00 | 19 | 994.7 |
| 20260507033039 | 16 | 11 | 8.0 | 12.9 | 0.00 | 0.00 | 0.00 | 20 | 994.5 |
| 20260507031536 | 16 | 50 | 4.8 | 8.0 | 0.00 | 0.00 | 0.00 | 19 | 994.4 |
| 20260507030036 | 17 | 60 | 6.4 | 11.3 | 0.00 | 0.00 | 0.00 | 18 | 994.1 |
| 20260507024529 | 17 | 59 | 9.7 | 14.5 | 0.00 | 0.00 | 0.00 | 18 | 993.8 |
| 20260507023025 | 17 | 24 | 3.2 | 12.9 | 0.00 | 0.00 | 0.00 | 18 | 993.4 |
| 20260507021521 | 18 | 40 | 6.4 | 12.9 | 0.00 | 0.00 | 0.00 | 17 | 993.1 |
| 20260507020015 | 18 | 15 | 4.8 | 12.9 | 0.00 | 0.00 | 0.00 | 16 | 993.0 |
| 20260507014515 | 19 | 11 | 9.7 | 17.7 | 0.00 | 0.00 | 0.00 | 13 | 992.8 |
| 20260507013015 | 20 | 13 | 12.9 | 20.9 | 0.00 | 0.00 | 0.00 | 13 | 992.7 |
| 20260507011512 | 21 | 22 | 16.1 | 32.2 | 0.00 | 0.00 | 0.00 | 13 | 992.5 |
| 20260507010012 | 22 | 340 | 16.1 | 29.0 | 0.00 | 0.00 | 0.00 | 12 | 992.1 |
| 20260507004512 | 22 | 336 | 12.9 | 30.6 | 0.00 | 0.00 | 0.00 | 12 | 992.0 |
| 20260507003009 | 22 | 326 | 24.1 | 35.4 | 0.00 | 0.00 | 0.00 | 11 | 991.9 |
| 20260507001511 | 23 | 348 | 19.3 | 33.8 | 0.00 | 0.00 | 0.00 | 11 | 991.7 |
| 20260507000007 | 23 | 355 | 25.7 | 37.0 | 0.00 | 0.00 | 0.00 | 10 | 991.6 |
| 20260506234508 | 23 | 346 | 27.4 | 43.5 | 0.00 | 0.00 | 0.00 | 12 | 991.7 |
| 20260506233010 | 23 | 355 | 20.9 | 37.0 | 0.00 | 0.00 | 0.00 | 12 | 991.6 |
| 20260506231503 | 23 | 323 | 20.9 | 38.6 | 0.00 | 0.00 | 0.00 | 12 | 991.5 |
| 20260506230007 | 24 | 355 | 20.9 | 38.6 | 0.00 | 0.00 | 0.00 | 12 | 991.6 |
| 20260506224502 | 24 | 292 | 25.7 | 46.7 | 0.00 | 0.00 | 0.00 | 11 | 991.6 |
| 20260506223031 | 24 | 331 | 16.1 | 37.0 | 0.00 | 0.00 | 0.00 | 10 | 991.6 |
| 20260506221532 | 24 | 333 | 24.1 | 38.6 | 0.00 | 0.00 | 0.00 | 11 | 991.6 |
| 20260506220035 | 24 | 284 | 14.5 | 45.1 | 0.00 | 0.00 | 0.00 | 11 | 991.6 |
| 20260506214526 | 25 | 5 | 19.3 | 45.1 | 0.00 | 0.00 | 0.00 | 12 | 991.6 |